Regional Weather Roundup
Issued by NWS

Home | Current Version | Previous Version | Graphics & Text | Print | Product List | Glossary On
Versions: 1 2 3 4 5 6 7 8 9 10 11 12 13 14 15 16 17 18 19 20 21 22 23 24 25 26 27
000
ASUS45 KBOU 260007
RWRCO

WEATHER ROUNDUP FOR COLORADO
NATIONAL WEATHER SERVICE DENVER/BOULDER CO
600 PM MDT MON JUL 25 2016

NOTE: "FAIR" INDICATES FEW OR NO CLOUDS BELOW 12000 FEET WITH NO
SIGNIFICANT WEATHER AND/OR OBSTRUCTIONS TO VISIBILITY.

COZ001>005-013-030-031-260100-
...NORTHWEST COLORADO...

CITY           SKY/WX    TMP DP  RH WIND       PRES   REMARKS
CRAIG          FAIR      86  32  14 S10       30.19S
HAYDEN         FAIR      86  34  15 SW9       30.23S
MEEKER         FAIR      85  39  19 SE5       30.22S
MOUNT WERNER   NOT AVBL
STEAMBOAT SPGS FAIR      85  36  17 SW9       30.26R
WALDEN         FAIR      77  28  16 W14       30.38S
$$

COZ006>008-011-260100-
...WEST CENTRAL VALLEYS...

CITY           SKY/WX    TMP DP  RH WIND       PRES   REMARKS
GRAND JUNCTION FAIR      96  30   9 SW10      30.06S
MONTROSE       FAIR      84  45  25 SW7       30.20S
EAGLE          SUNNY     88  32  13 E6        30.25F
RIFLE          FAIR      93  29  10 CALM      30.13F
DELTA          FAIR      93  40  16 SE12G20   30.13S
NUCLA          FAIR     N/A N/A N/A SE8       30.22F
$$

COZ017>023-064>068-260100-
...SOUTHWEST COLORADO...

CITY           SKY/WX    TMP DP  RH WIND       PRES   REMARKS
DURANGO        CLOUDY    83  36  18 VRB7G20   30.24R
CORTEZ         FAIR      92  40  16 W6        30.15F
PAGOSA SPRINGS FAIR      82  28  14 CALM      30.33F
TELLURIDE      FAIR      68  44  41 CALM      30.51S
WOLF CREEK PAS CLOUDY    59  34  38 N6        30.73S
$$

COZ009-010-012-014-032>034-037-058>063-260100-
...CENTRAL COLORADO...

CITY           SKY/WX    TMP DP  RH WIND       PRES   REMARKS
ASPEN          PTSUNNY   79  36  21 SE6       30.34F
BUENA VISTA    FAIR      80  29  15 W10       30.37F
COPPER MTN     PTSUNNY   64  25  22 NW18G26   30.72S
BERTHOUD PASS  FAIR      55  41  58 N17G32    30.75R
COTTONWOOD PAS FAIR      75  28  17 W3        30.54F
GUNNISON       FAIR      72  45  37 NW6       30.42F
KREMMLING      FAIR      86  18   8 NW7       30.31F
LEADVILLE      FAIR      66  30  26 CALM      30.53F
MONARCH PASS   FAIR      59  30  33 N9        30.84S
SALIDA         FAIR      83  30  14 N8        30.40F
SUNLIGHT       PTSUNNY   70  32  24 CALM      30.65F
WILKERSON PASS FAIR      68  25  19 W5        30.67S
$$

COZ069>075-260100-
...SAN LUIS VALLEY/SANGRE DE CRISTO MOUNTAINS...

CITY           SKY/WX    TMP DP  RH WIND       PRES   REMARKS
ALAMOSA        PTSUNNY   80  40  23 E13       30.31R
LA VETA PASS   FAIR      64  39  39 N7        30.56S
SAGUACHE       FAIR      81  36  19 N21G29    30.35S
$$

COZ035-036-038>040-260100-
...NORTHERN COLORADO FRONT RANGE...

CITY           SKY/WX    TMP DP  RH WIND       PRES   REMARKS
DENVER INTL AP FAIR      88  46  23 SE23G37   30.11R
DMNS CITY PARK   N/A     90  51  26 N5G12     30.11R
AURORA         MOSUNNY   89  48  24 SE22G29   30.14R
FRONT RANGE AP PTSUNNY   86  46  25 SE26G36   30.14R
ERIE MUNI ARPT FAIR      88  54  31 NW7       30.09F
BOULDER MUN AP FAIR      86  54  32 W5        30.11F
CENTENNIAL     FAIR      88  46  23 N8        30.15S
BROOMFIELD     PTSUNNY   90  54  29 NW7       30.15S
LONGMONT       FAIR      87  55  33 CALM      30.11S
$$

COZ041-046-047-076>085-087-088-260100-
...PIKES PEAK/PALMER DIVIDE AND SOUTHERN FOOTHILLS...

CITY           SKY/WX    TMP DP  RH WIND       PRES   REMARKS
COLO. SPRINGS  PTSUNNY   69  49  48 S12       30.27S THUNDER
A. F. ACADEMY  PTSUNNY   73  48  41 S13       30.29R
SCHRIEVER AFB  NOT AVBL
ELLICOTT       FAIR     N/A N/A N/A S18G30    30.24F THUNDER
FALCON         FAIR      69  48  47 S7        30.32R
FORT CARSON    PTSUNNY   65  53  64 W14       30.24F
LIMON          NOT AVBL
MONUMENT HILL  FAIR      72  46  40 S21       30.31R
TRINIDAD       NOT AVBL
$$

COZ042>045-048>051-090-091-260100-
...NORTHEAST COLORADO...

CITY           SKY/WX    TMP DP  RH WIND       PRES   REMARKS
GREELEY ARPT   FAIR      91  59  33 E10       30.07S
AKRON          FAIR      82  61  48 SE26G33   30.11F
BURLINGTON     FAIR      81  61  50 SE16      30.14R
WRAY           NOT AVBL
STERLING       FAIR      86  64  48 S18       30.06S
HOLYOKE        FAIR      84  61  45 W14G20    30.09S
FORT MORGAN    FAIR      87  57  36 SE17G26   30.08S
$$

COZ086-089-092>099-260100-
...SOUTHEAST COLORADO...

CITY           SKY/WX    TMP DP  RH WIND       PRES   REMARKS
PUEBLO         PTSUNNY   83  54  36 N38G46    30.14R
LA JUNTA       FAIR      88  63  43 E21       30.08R
LAMAR          FAIR      85  63  47 SE15      30.07R
SPRINGFIELD      N/A     82  60  47 SE10      30.15R
$$




USA.gov is the U.S. government's official web portal to all federal, state and local government web resources and services.